This is the latest recevied weather packets stored in our database for station/object N0NPO. If no packets are shown the sender has not sent any weather packets the latest 10 day(s).
| Time | Temp. | Humidity | Pressure | Rain* | Wind** | Luminosity | Snow |
|---|---|---|---|---|---|---|---|
| 1777651705 | 9.44° C | 1% | 1024.5 hPa | 0 mm | - | 727 W/m² | - |
| 1777651402 | 10° C | 1% | 1024.7 hPa | 0 mm | - | 684 W/m² | - |
| 1777651100 | 8.89° C | 1% | 1024.6 hPa | 0 mm | - | 675 W/m² | - |
| 1777650796 | 8.89° C | 1% | 1024.6 hPa | 0 mm | - | 667 W/m² | - |
| 1777650493 | 8.89° C | 1% | 1024.4 hPa | 0 mm | - | 658 W/m² | - |
| 1777650190 | 8.33° C | 1% | 1024.4 hPa | 0 mm | - | 615 W/m² | - |
| 1777649888 | 8.89° C | 1% | 1024.4 hPa | 0 mm | - | 473 W/m² | - |
| 1777649585 | 7.78° C | 1% | 1024.3 hPa | 0 mm | - | 620 W/m² | - |
| 1777649281 | 8.33° C | 1% | 1024.7 hPa | 0 mm | - | 580 W/m² | - |
| 1777648978 | 6.67° C | 1% | 1024.5 hPa | 0 mm | - | 547 W/m² | - |
| 1777648676 | 6.67° C | 1% | 1024.7 hPa | 0 mm | - | 560 W/m² | - |
| 1777648371 | 7.22° C | 1% | 1024.5 hPa | 0 mm | - | 472 W/m² | - |
| 1777648068 | 6.11° C | 1% | 1024.6 hPa | 0 mm | - | 460 W/m² | - |
| 1777647764 | 6.11° C | 1% | 1024.6 hPa | 0 mm | - | 461 W/m² | - |
| 1777647460 | 6.11° C | 1% | 1024.6 hPa | 0 mm | - | 428 W/m² | - |
| 1777647158 | 5.56° C | 1% | 1024.6 hPa | 0 mm | - | 400 W/m² | - |
| 1777646854 | 6.11° C | 1% | 1024.5 hPa | 0 mm | - | 354 W/m² | - |
| 1777646550 | 6.67° C | 1% | 1024.5 hPa | 0 mm | - | 382 W/m² | - |
| 1777646246 | 6.67° C | 1% | 1024.5 hPa | 0 mm | - | 295 W/m² | - |
| 1777645944 | 6.67° C | 1% | 1024.4 hPa | 0 mm | - | 319 W/m² | - |
| 1777645641 | 6.11° C | 1% | 1024.6 hPa | 0 mm | - | 345 W/m² | - |
| 1777645337 | 5° C | 1% | 1024.6 hPa | 0 mm | - | 314 W/m² | - |
| 1777645032 | 4.44° C | 1% | 1024.3 hPa | 0 mm | - | 287 W/m² | - |
| 1777644730 | 4.44° C | 1% | 1024.3 hPa | 0 mm | - | 284 W/m² | - |
| 1777644427 | 3.89° C | 1% | 1024.4 hPa | 0 mm | - | 286 W/m² | - |
* Rain latest hour (hover to see other rain measurements)
** Current wind speed in m/s (hover to see current wind gust speed)